Estación municipal de Cànoves i Samalús (Vallès Oriental, P.N.del Montseny)

Consulta los datos en tiempo real de la estación municipal de Cànoves i Samalús





Hora UTC 08:40
Temperatura 30.7 ºC
Humedad 42.4 %
Presión 1021.2 hPa
Pluja 0.0 mm
Velocidad viento 8.6 km/h
Dirección viento SE
Radiación solar 492.9 W/m²

Webcam

Datos diarios 2026-09-06



Hora UTC (invierno +1h; verano +2h)
Temperatura (ºC) Humedad (%) Presión (hPa) Velocidad viento (km/h) Precipitación (mm) Radiación solar (W/m²)
Hora UTC Aire Humedad Presión Vel. Dir. Vel. Max Dir. Intent. máx 5 min. Rad. Sol.
00:05 22.2 55.1 1020.5 5.6 NNW 5.6 N 0.0 0.1
00:10 22.0 55.8 1020.5 5.4 NNW 6.4 NNW 0.0 0.1
00:15 22.0 56.3 1020.5 4.8 NNW 6.0 NW 0.0 0.1
00:20 21.9 57.0 1020.5 4.5 NNW 6.0 NNW 0.0 0.1
00:25 21.9 57.0 1020.5 3.6 NNW 5.6 NNW 0.0 0.1
00:30 21.9 55.9 1020.4 3.0 NW 4.6 NNW 0.0 0.1
00:35 21.9 54.9 1020.4 0.9 NW 2.8 N 0.0 0.1
00:40 22.0 54.6 1020.4 1.3 NNW 5.3 WNW 0.0 0.1
00:45 22.2 54.3 1020.4 1.3 NW 3.9 NNW 0.0 0.1
00:50 22.2 54.0 1020.3 1.5 NNW 4.6 N 0.0 0.1
00:55 22.3 54.4 1020.3 3.6 NNW 4.9 N 0.0 0.1
01:00 22.3 54.4 1020.3 3.4 NNW 4.6 N 0.0 0.1
01:05 22.3 54.4 1020.2 3.8 NNW 4.9 NNW 0.0 0.1
01:10 22.2 55.3 1020.2 1.1 NNW 3.9 NNW 0.0 0.1
01:15 21.8 55.6 1020.1 1.4 S 3.9 S 0.0 0.1
01:20 21.9 54.7 1020.1 1.0 NNW 3.2 NNW 0.0 0.1
01:25 21.8 55.9 1020.1 0.6 W 2.8 WNW 0.0 0.1
01:30 21.7 56.5 1020.1 2.6 NW 6.0 NNW 0.0 0.1
01:35 21.9 56.7 1020.0 2.4 NNW 4.2 N 0.0 0.1
01:40 21.8 56.9 1020.0 5.1 NNW 7.8 N 0.0 0.1
01:45 22.0 53.6 1020.0 5.5 NNW 7.8 NNW 0.0 0.1
01:50 22.0 56.0 1020.0 1.0 NW 3.2 NNW 0.0 0.1
01:55 21.4 59.2 1020.0 0.5 SE 2.8 SE 0.0 0.1
02:00 20.9 58.7 1020.0 1.5 NNW 4.2 NNW 0.0 0.1
02:05 20.9 58.6 1020.0 3.7 NNW 4.6 NNW 0.0 0.1
02:10 21.0 56.7 1019.9 3.6 NW 5.3 NNW 0.0 0.1
02:15 21.3 55.4 1019.9 5.1 NNW 7.1 NNW 0.0 0.1
02:20 21.6 53.3 1019.9 5.1 NNW 7.4 NNW 0.0 0.1
02:25 21.8 50.9 1019.9 2.8 NW 4.6 NW 0.0 0.1
02:30 22.0 51.0 1019.8 3.2 NNW 5.6 ESE 0.0 0.1
02:35 21.4 57.4 1019.9 1.9 SE 6.0 SE 0.0 0.1
02:40 21.0 56.6 1019.9 0.9 SSW 3.5 SSW 0.0 0.1
02:45 21.0 56.6 1019.9 1.4 WSW 3.2 SSW 0.0 0.1
02:50 21.2 57.0 1019.9 2.2 WNW 3.2 WNW 0.0 0.1
02:55 21.3 57.4 1019.9 1.5 NW 2.8 NW 0.0 0.1
03:00 21.2 58.4 1019.9 1.3 NW 4.6 NW 0.0 0.1
03:05 21.2 58.7 1019.9 4.5 NNW 6.0 NNW 0.0 0.1
03:10 21.1 58.7 1019.9 1.8 NNW 5.3 NNW 0.0 0.1
03:15 20.9 59.5 1019.9 2.1 NW 2.8 NW 0.0 0.1
03:20 20.6 60.5 1019.9 2.4 NNW 4.6 NNW 0.0 0.1
03:25 20.4 61.1 1019.8 2.4 NNW 3.5 NNW 0.0 0.1
03:30 20.3 61.9 1019.8 2.9 NNW 4.2 NNW 0.0 0.1
03:35 20.2 62.1 1019.8 1.9 NNW 3.5 NNW 0.0 0.1
03:40 20.2 62.7 1019.8 2.5 N 3.5 NNW 0.0 0.1
03:45 20.3 63.0 1019.7 3.8 NNW 5.6 NNW 0.0 0.1
03:50 20.3 62.8 1019.7 2.1 N 4.9 NNW 0.0 0.1
03:55 20.3 63.0 1019.8 3.6 NNW 5.3 NNW 0.0 0.1
04:00 20.4 63.0 1019.8 4.1 NNW 6.0 N 0.0 0.1
04:05 20.4 62.4 1019.7 4.1 NW 5.6 NNW 0.0 0.1
04:10 20.5 61.6 1019.7 4.3 NNW 6.0 NNW 0.0 0.1
04:15 20.6 61.6 1019.7 3.5 NNW 4.9 NNW 0.0 0.1
04:20 20.6 61.9 1019.7 5.2 NNW 6.0 NNW 0.0 0.1
04:25 20.7 61.3 1019.7 4.6 NNW 6.4 N 0.0 0.1
04:30 20.7 60.5 1019.7 5.1 NNW 8.1 NNW 0.0 0.1
04:35 20.9 59.0 1019.7 4.3 N 7.8 N 0.0 0.1
04:40 20.9 59.0 1019.7 5.8 NNW 7.8 NNW 0.0 0.1
04:45 20.8 58.9 1019.7 5.0 NNW 8.1 NNW 0.0 0.1
04:50 20.7 59.1 1019.7 4.2 NNW 7.8 NNW 0.0 0.1
04:55 20.7 60.5 1019.7 4.9 N 8.5 N 0.0 0.2
05:00 20.6 60.0 1019.7 4.9 NNW 7.1 N 0.0 0.2
05:05 20.5 59.9 1019.7 5.4 NNW 7.8 NNW 0.0 0.5
05:10 20.5 59.6 1019.8 5.3 N 8.8 NNW 0.0 1.2
05:15 20.8 58.8 1019.9 5.1 NNW 7.4 NW 0.0 2.6
05:20 20.7 59.1 1019.9 4.7 N 8.5 N 0.0 4.4
05:25 20.7 59.2 1019.9 5.2 NNW 9.5 N 0.0 7.3
05:30 20.9 58.6 1019.9 5.1 N 7.4 NNW 0.0 11.0
05:35 21.3 57.5 1020.0 6.6 N 9.9 0.0 15.7
05:40 21.4 57.7 1020.0 4.9 N 8.1 NNW 0.0 20.9
05:45 21.7 56.6 1020.0 5.8 N 9.5 NNW 0.0 26.4
05:50 21.9 56.3 1020.1 6.3 NNW 8.5 NNW 0.0 32.1
05:55 22.0 57.0 1020.1 5.0 NNW 7.1 NNW 0.0 38.9
06:00 22.1 56.3 1020.2 5.2 NNW 7.1 NNW 0.0 42.7
06:05 22.4 55.6 1020.2 5.0 N 8.1 NNW 0.0 47.5
06:10 22.8 54.8 1020.3 5.9 NNW 9.2 NNW 0.0 52.1
06:15 23.0 54.7 1020.3 3.9 N 6.4 NNW 0.0 56.3
06:20 23.1 55.2 1020.4 2.8 N 4.6 NNW 0.0 60.5
06:25 23.3 55.4 1020.5 4.5 NNW 6.0 N 0.0 65.0
06:30 23.5 54.9 1020.5 4.5 NNW 5.6 N 0.0 68.9
06:35 23.9 54.7 1020.5 2.2 N 4.9 N 0.0 72.5
06:40 24.0 55.5 1020.5 0.0 NNE 0.0 N 0.0 75.7
06:45 24.1 55.7 1020.5 2.1 N 3.5 0.0 78.5
06:50 24.4 55.5 1020.5 0.4 N 3.9 ESE 0.0 80.7
06:55 24.7 55.6 1020.6 0.5 SSE 3.9 SSE 0.0 82.3
07:00 25.2 55.2 1020.6 2.2 SE 4.2 SSE 0.0 83.5
07:05 26.0 52.3 1020.6 3.1 ESE 7.8 ESE 0.0 84.8
07:10 27.1 49.9 1020.7 4.7 E 9.5 ENE 0.0 86.1
07:15 27.7 48.4 1020.7 5.4 E 9.9 ESE 0.0 87.7
07:20 28.0 47.3 1020.7 6.4 E 11.6 ENE 0.0 89.9
07:25 28.2 46.9 1020.8 4.6 E 10.9 ENE 0.0 92.5
07:30 28.3 47.0 1020.8 2.7 ENE 6.7 E 0.0 95.5
07:35 28.6 46.4 1020.8 3.2 ESE 7.4 E 0.0 115.6
07:40 28.8 46.1 1020.8 4.8 ESE 8.8 ESE 0.0 105.9
07:45 28.9 45.8 1020.8 5.9 SE 8.8 ESE 0.0 153.9
07:50 29.1 45.5 1020.8 5.4 ESE 10.2 SE 0.0 177.4
07:55 29.3 45.0 1020.9 6.2 E 11.3 E 0.0 251.2
08:00 29.5 44.3 1020.8 7.0 E 14.5 E 0.0 228.7
08:05 29.5 44.2 1020.9 5.7 E 12.0 ENE 0.0 386.6
08:10 29.8 43.6 1021.0 5.5 E 10.9 E 0.0 396.9
08:15 29.8 43.4 1021.0 5.3 ENE 11.3 E 0.0 416.1
08:20 30.0 43.3 1021.0 6.1 E 11.3 ESE 0.0 429.5
08:25 30.2 43.3 1021.0 5.6 ESE 9.5 SSE 0.0 442.6
08:30 30.5 42.9 1021.1 7.1 SE 12.4 SSE 0.0 438.2
08:35 30.8 42.4 1021.1 7.8 SE 12.0 ESE 0.0 479.9
08:40 30.7 42.4 1021.2 8.6 SE 15.5 ESE 0.0 492.9
Máxima 30.8 63.0 1021.2 8.6 SE 15.5 ESE 0.0 492.9
Mínima 20 42.4 1019.7
Total 0.0